Powrót do katalogu

STARLINK-37734

AktywnyŁącznośćSSO
NORAD 69305·PAYLOAD·🇺🇸 United States

Wystrzelony May 30, 2026 z Vandenberg Space Force Base

Loading…

Następne Przeloty (najbliższe 24 godziny)

TLE

ŚwieżeSource: CelesTrak SupGP

Epoka: Sep 14, 2026, 23:02 UTC

1 69305C 26119K   26257.96020833  .00041738  00000+0  12957-2 0  2570
2 69305  97.2828 282.7692 0001096  94.1867 270.5456 15.33416990    19

Śledź STARLINK-37734 w czasie rzeczywistym z AllMySat

Download on the App Store